| time (UTC) | temp F | wind direction | speed MPH | gust MPH | rain 1hr in | rain 24hr in | rain mn in | humidity % | barometer mb |
| 20260504202221 | 61 | 321 | 3.0 | 6.0 | 0.00 | 0.00 | 0.00 | 39 | 1012.8 |
| 20260504201718 | 61 | 35 | 4.0 | 8.0 | 0.00 | 0.00 | 0.00 | 38 | 1012.7 |
| 20260504201215 | 62 | 88 | 3.0 | 14.0 | 0.00 | 0.00 | 0.00 | 39 | 1012.6 |
| 20260504200713 | 62 | 31 | 5.0 | 10.0 | 0.00 | 0.00 | 0.00 | 39 | 1012.6 |
| 20260504200208 | 62 | 28 | 8.0 | 16.0 | 0.00 | 0.00 | 0.00 | 38 | 1012.4 |
| 20260504195705 | 62 | 71 | 4.0 | 13.0 | 0.00 | 0.00 | 0.00 | 38 | 1012.1 |
| 20260504195201 | 62 | 50 | 1.0 | 9.0 | 0.00 | 0.00 | 0.00 | 37 | 1012.4 |
| 20260504194658 | 62 | 328 | 8.0 | 13.0 | 0.00 | 0.00 | 0.00 | 36 | 1012.2 |
| 20260504194154 | 62 | 22 | 7.0 | 18.0 | 0.00 | 0.00 | 0.00 | 36 | 1012.5 |
| 20260504193651 | 62 | 320 | 9.0 | 22.0 | 0.00 | 0.00 | 0.00 | 36 | 1012.2 |
| 20260504193149 | 63 | 330 | 11.0 | 22.0 | 0.00 | 0.00 | 0.00 | 35 | 1012.0 |
| 20260504192646 | 64 | 305 | 7.0 | 29.0 | 0.00 | 0.00 | 0.00 | 34 | 1011.7 |
| 20260504192144 | 66 | 347 | 20.0 | 25.0 | 0.00 | 0.00 | 0.00 | 29 | 1011.5 |
| 20260504191642 | 66 | 273 | 5.0 | 6.0 | 0.00 | 0.00 | 0.00 | 30 | 1011.2 |
| 20260504191138 | 66 | 336 | 3.0 | 6.0 | 0.00 | 0.00 | 0.00 | 29 | 1011.2 |
| 20260504190634 | 65 | 8 | 3.0 | 6.0 | 0.00 | 0.00 | 0.00 | 29 | 1011.0 |
| 20260504190131 | 65 | 148 | 0.0 | 6.0 | 0.00 | 0.00 | 0.00 | 37 | 1010.9 |
| 20260504185628 | 66 | 43 | 2.0 | 7.0 | 0.00 | 0.00 | 0.00 | 30 | 1010.9 |
| 20260504185124 | 66 | 50 | 4.0 | 8.0 | 0.00 | 0.00 | 0.00 | 27 | 1010.6 |
| 20260504184620 | 67 | 5 | 8.0 | 11.0 | 0.00 | 0.00 | 0.00 | 26 | 1010.7 |
| 20260504184115 | 69 | 76 | 4.0 | 11.0 | 0.00 | 0.00 | 0.00 | 25 | 1011.0 |
| 20260504183613 | 70 | 170 | 0.0 | 1.0 | 0.00 | 0.00 | 0.00 | 24 | 1010.5 |
| 20260504183111 | 70 | 188 | 0.0 | 1.0 | 0.00 | 0.00 | 0.00 | 24 | 1010.4 |
| 20260504182608 | 69 | 204 | 1.0 | 3.0 | 0.00 | 0.00 | 0.00 | 25 | 1010.5 |
| 20260504182105 | 69 | 148 | 1.0 | 6.0 | 0.00 | 0.00 | 0.00 | 23 | 1010.4 |
| 20260504181602 | 69 | 16 | 2.0 | 11.0 | 0.00 | 0.00 | 0.00 | 23 | 1010.4 |
| 20260504181100 | 69 | 320 | 5.0 | 9.0 | 0.00 | 0.00 | 0.00 | 23 | 1010.3 |
| 20260504180559 | 70 | 307 | 5.0 | 11.0 | 0.00 | 0.00 | 0.00 | 23 | 1010.3 |
| 20260504180057 | 70 | 299 | 5.0 | 10.0 | 0.00 | 0.00 | 0.00 | 23 | 1010.3 |
| 20260504175554 | 70 | 8 | 5.0 | 9.0 | 0.00 | 0.00 | 0.00 | 24 | 1010.4 |
| 20260504175051 | 70 | 314 | 6.0 | 11.0 | 0.00 | 0.00 | 0.00 | 22 | 1010.6 |
| 20260504174549 | 72 | 325 | 11.0 | 18.0 | 0.00 | 0.00 | 0.00 | 23 | 1010.6 |
| 20260504174045 | 73 | 285 | 3.0 | 7.0 | 0.00 | 0.00 | 0.00 | 22 | 1010.6 |
| 20260504173542 | 73 | 269 | 5.0 | 8.0 | 0.00 | 0.00 | 0.00 | 22 | 1010.7 |
| 20260504173040 | 72 | 215 | 6.0 | 10.0 | 0.00 | 0.00 | 0.00 | 23 | 1010.6 |
| 20260504172536 | 72 | 194 | 3.0 | 10.0 | 0.00 | 0.00 | 0.00 | 21 | 1010.9 |
| 20260504172032 | 71 | 297 | 6.0 | 14.0 | 0.00 | 0.00 | 0.00 | 22 | 1010.6 |
| 20260504171529 | 72 | 254 | 8.0 | 11.0 | 0.00 | 0.00 | 0.00 | 22 | 1010.9 |
| 20260504171026 | 72 | 281 | 5.0 | 10.0 | 0.00 | 0.00 | 0.00 | 22 | 1010.7 |
| 20260504170522 | 71 | 321 | 7.0 | 16.0 | 0.00 | 0.00 | 0.00 | 21 | 1010.9 |
| 20260504160442 | 70 | 342 | 1.0 | 2.0 | 0.00 | 0.00 | 0.00 | 25 | 1011.0 |
| 20260504150906 | 59 | 169 | 1.0 | 1.0 | 0.00 | 0.00 | 0.00 | 44 | 1011.7 |
| 20260504150403 | 58 | 107 | 0.0 | 1.0 | 0.00 | 0.00 | 0.00 | 40 | 1011.7 |
| 20260504141333 | 51 | 171 | 1.0 | 3.0 | 0.00 | 0.00 | 0.00 | 58 | 1011.8 |
| 20260504140829 | 51 | 177 | 1.0 | 2.0 | 0.00 | 0.00 | 0.00 | 62 | 1012.0 |
| 20260504140325 | 50 | 172 | 0.0 | 2.0 | 0.00 | 0.00 | 0.00 | 62 | 1011.9 |
| 20260504130754 | 42 | 197 | 0.0 | 0.0 | 0.00 | 0.00 | 0.00 | 75 | 1012.0 |
| 20260504130250 | 41 | 189 | 0.0 | 1.0 | 0.00 | 0.00 | 0.00 | 75 | 1011.9 |
| 20260504120214 | 39 | 209 | 0.0 | 1.0 | 0.00 | 0.00 | 0.00 | 80 | 1012.0 |
| 20260504110641 | 38 | 224 | 0.0 | 1.0 | 0.00 | 0.00 | 0.00 | 78 | 1011.9 |
| 20260504110137 | 39 | 233 | 1.0 | 1.0 | 0.00 | 0.00 | 0.00 | 77 | 1012.0 |
| 20260504100603 | 40 | 203 | 0.0 | 0.0 | 0.00 | 0.00 | 0.00 | 74 | 1012.4 |
| 20260504081956 | 43 | 216 | 0.0 | 1.0 | 0.00 | 0.00 | 0.00 | 64 | 1013.2 |
| 20260504081454 | 43 | 155 | 1.0 | 1.0 | 0.00 | 0.00 | 0.00 | 67 | 1013.2 |
| 20260504080949 | 43 | 276 | 1.0 | 1.0 | 0.00 | 0.00 | 0.00 | 67 | 1013.3 |
| 20260504080446 | 43 | 276 | 1.0 | 1.0 | 0.00 | 0.00 | 0.00 | 65 | 1013.4 |
| 20260504050259 | 57 | 300 | 3.0 | 5.0 | 0.00 | 0.00 | 0.00 | 36 | 1014.3 |
| 20260504045756 | 57 | 330 | 3.0 | 3.0 | 0.00 | 0.00 | 0.00 | 35 | 1014.6 |
| 20260504045250 | 57 | 295 | 1.0 | 3.0 | 0.00 | 0.00 | 0.00 | 35 | 1014.6 |
| 20260504044748 | 58 | 274 | 1.0 | 3.0 | 0.00 | 0.00 | 0.00 | 35 | 1014.7 |
| 20260504044246 | 58 | 293 | 3.0 | 6.0 | 0.00 | 0.00 | 0.00 | 33 | 1014.4 |
| 20260504043743 | 59 | 321 | 3.0 | 6.0 | 0.00 | 0.00 | 0.00 | 33 | 1014.6 |
| 20260504043240 | 59 | 326 | 3.0 | 6.0 | 0.00 | 0.00 | 0.00 | 33 | 1014.6 |
| 20260504042738 | 59 | 4 | 3.0 | 7.0 | 0.00 | 0.00 | 0.00 | 33 | 1014.4 |
| 20260504042234 | 60 | 250 | 1.0 | 5.0 | 0.00 | 0.00 | 0.00 | 32 | 1014.7 |
| 20260504041730 | 60 | 278 | 2.0 | 6.0 | 0.00 | 0.00 | 0.00 | 32 | 1014.7 |
| 20260504041226 | 60 | 5 | 5.0 | 8.0 | 0.00 | 0.00 | 0.00 | 32 | 1014.4 |
| 20260504040722 | 61 | 323 | 4.0 | 7.0 | 0.00 | 0.00 | 0.00 | 31 | 1014.7 |
| 20260504040220 | 61 | 345 | 7.0 | 8.0 | 0.00 | 0.00 | 0.00 | 31 | 1014.6 |
| 20260504035716 | 62 | 14 | 6.0 | 8.0 | 0.00 | 0.00 | 0.00 | 29 | 1014.4 |
| 20260504035213 | 62 | 112 | 1.0 | 3.0 | 0.00 | 0.00 | 0.00 | 28 | 1014.3 |
| 20260504034711 | 62 | 332 | 3.0 | 8.0 | 0.00 | 0.00 | 0.00 | 28 | 1014.4 |
| 20260504034208 | 62 | 305 | 3.0 | 6.0 | 0.00 | 0.00 | 0.00 | 27 | 1014.6 |
| 20260504033705 | 63 | 326 | 6.0 | 7.0 | 0.00 | 0.00 | 0.00 | 26 | 1014.4 |
| 20260504033202 | 63 | 285 | 1.0 | 2.0 | 0.00 | 0.00 | 0.00 | 27 | 1014.3 |
| 20260504032659 | 64 | 322 | 2.0 | 3.0 | 0.00 | 0.00 | 0.00 | 25 | 1014.2 |
| 20260504032156 | 64 | 96 | 1.0 | 3.0 | 0.00 | 0.00 | 0.00 | 25 | 1014.2 |
| 20260504031653 | 63 | 60 | 1.0 | 3.0 | 0.00 | 0.00 | 0.00 | 25 | 1014.0 |
| 20260504031149 | 63 | 326 | 3.0 | 3.0 | 0.00 | 0.00 | 0.00 | 25 | 1013.8 |
| 20260504030646 | 63 | 83 | 0.0 | 1.0 | 0.00 | 0.00 | 0.00 | 26 | 1013.6 |
| 20260504030143 | 64 | 263 | 2.0 | 3.0 | 0.00 | 0.00 | 0.00 | 27 | 1013.5 |
| 20260504025640 | 64 | 287 | 1.0 | 2.0 | 0.00 | 0.00 | 0.00 | 27 | 1013.6 |
| 20260504025137 | 64 | 344 | 0.0 | 3.0 | 0.00 | 0.00 | 0.00 | 27 | 1013.4 |
| 20260504024634 | 62 | 17 | 1.0 | 5.0 | 0.00 | 0.00 | 0.00 | 31 | 1013.3 |
| 20260504024130 | 60 | 35 | 1.0 | 2.0 | 0.00 | 0.00 | 0.00 | 36 | 1013.5 |
| 20260504023627 | 61 | 260 | 0.0 | 0.0 | 0.00 | 0.00 | 0.00 | 35 | 1013.2 |
| 20260504023123 | 61 | 260 | 0.0 | 1.0 | 0.00 | 0.00 | 0.00 | 35 | 1013.2 |
| 20260504022620 | 62 | 260 | 0.0 | 1.0 | 0.00 | 0.00 | 0.00 | 31 | 1013.2 |
| 20260504022115 | 62 | 260 | 0.0 | 0.0 | 0.00 | 0.00 | 0.00 | 30 | 1013.1 |
| 20260504021614 | 62 | 261 | 0.0 | 0.0 | 0.00 | 0.00 | 0.00 | 30 | 1012.7 |
| 20260504021110 | 63 | 262 | 1.0 | 1.0 | 0.00 | 0.00 | 0.00 | 29 | 1013.1 |
| 20260504020607 | 64 | 289 | 0.0 | 0.0 | 0.00 | 0.00 | 0.00 | 31 | 1013.1 |
| 20260504020103 | 64 | 289 | 0.0 | 1.0 | 0.00 | 0.00 | 0.00 | 28 | 1012.9 |
| 20260504015600 | 64 | 291 | 0.0 | 0.0 | 0.00 | 0.00 | 0.00 | 29 | 1013.1 |
| 20260504015056 | 65 | 292 | 0.0 | 0.0 | 0.00 | 0.00 | 0.00 | 27 | 1012.9 |
| 20260504014552 | 66 | 350 | 0.0 | 0.0 | 0.00 | 0.00 | 0.00 | 27 | 1013.1 |
| 20260504014050 | 66 | 350 | 0.0 | 1.0 | 0.00 | 0.00 | 0.00 | 27 | 1012.9 |
| 20260504013547 | 68 | 350 | 0.0 | 0.0 | 0.00 | 0.00 | 0.00 | 25 | 1013.1 |
| 20260504013044 | 67 | 355 | 1.0 | 2.0 | 0.00 | 0.00 | 0.00 | 24 | 1013.1 |
| 20260504012541 | 68 | 198 | 0.0 | 1.0 | 0.00 | 0.00 | 0.00 | 25 | 1012.9 |
| 20260504012039 | 68 | 217 | 0.0 | 1.0 | 0.00 | 0.00 | 0.00 | 26 | 1013.1 |
| 20260504011536 | 68 | 223 | 0.0 | 2.0 | 0.00 | 0.00 | 0.00 | 23 | 1012.9 |
| 20260504011032 | 68 | 313 | 3.0 | 3.0 | 0.00 | 0.00 | 0.00 | 26 | 1013.1 |
| 20260504010527 | 69 | 163 | 0.0 | 2.0 | 0.00 | 0.00 | 0.00 | 22 | 1013.2 |
| 20260504010024 | 68 | 174 | 1.0 | 2.0 | 0.00 | 0.00 | 0.00 | 23 | 1013.1 |
| 20260504005521 | 68 | 278 | 2.0 | 3.0 | 0.00 | 0.00 | 0.00 | 24 | 1013.1 |
| 20260504005018 | 69 | 146 | 1.0 | 3.0 | 0.00 | 0.00 | 0.00 | 22 | 1012.8 |
| 20260504004516 | 70 | 172 | 0.0 | 0.0 | 0.00 | 0.00 | 0.00 | 22 | 1013.1 |
| 20260504004013 | 70 | 153 | 1.0 | 1.0 | 0.00 | 0.00 | 0.00 | 20 | 1013.2 |
| 20260504003509 | 70 | 168 | 0.0 | 0.0 | 0.00 | 0.00 | 0.00 | 22 | 1013.3 |
| 20260504003006 | 70 | 180 | 0.0 | 1.0 | 0.00 | 0.00 | 0.00 | 21 | 1013.2 |
| 20260504002503 | 70 | 198 | 0.0 | 1.0 | 0.00 | 0.00 | 0.00 | 21 | 1013.2 |
| 20260504002000 | 70 | 166 | 0.0 | 0.0 | 0.00 | 0.00 | 0.00 | 23 | 1013.2 |
| 20260504001457 | 70 | 174 | 0.0 | 0.0 | 0.00 | 0.00 | 0.00 | 23 | 1012.9 |
| 20260504000953 | 70 | 183 | 1.0 | 1.0 | 0.00 | 0.00 | 0.00 | 21 | 1013.3 |
| 20260504000451 | 70 | 198 | 0.0 | 0.0 | 0.00 | 0.00 | 0.00 | 19 | 1013.4 |
| 20260503235948 | 71 | 202 | 0.0 | 0.0 | 0.00 | 0.00 | 0.00 | 20 | 1013.2 |
| 20260503235446 | 71 | 202 | 1.0 | 2.0 | 0.00 | 0.00 | 0.00 | 19 | 1013.3 |
| 20260503234943 | 71 | 201 | 0.0 | 1.0 | 0.00 | 0.00 | 0.00 | 20 | 1013.3 |
| 20260503234440 | 71 | 309 | 2.0 | 5.0 | 0.00 | 0.00 | 0.00 | 18 | 1013.4 |
| 20260503233938 | 71 | 326 | 6.0 | 8.0 | 0.00 | 0.00 | 0.00 | 18 | 1013.4 |
| 20260503233434 | 71 | 328 | 7.0 | 13.0 | 0.00 | 0.00 | 0.00 | 18 | 1013.5 |
| 20260503232931 | 71 | 313 | 8.0 | 10.0 | 0.00 | 0.00 | 0.00 | 17 | 1013.5 |
| 20260503232428 | 71 | 301 | 3.0 | 8.0 | 0.00 | 0.00 | 0.00 | 18 | 1013.5 |
| 20260503231926 | 71 | 329 | 8.0 | 11.0 | 0.00 | 0.00 | 0.00 | 17 | 1013.4 |
| 20260503231423 | 71 | 226 | 9.0 | 14.0 | 0.00 | 0.00 | 0.00 | 16 | 1013.1 |
| 20260503230919 | 71 | 300 | 7.0 | 13.0 | 0.00 | 0.00 | 0.00 | 17 | 1013.4 |
| 20260503230416 | 72 | 236 | 6.0 | 13.0 | 0.00 | 0.00 | 0.00 | 17 | 1013.4 |
| 20260503225914 | 72 | 334 | 9.0 | 14.0 | 0.00 | 0.00 | 0.00 | 17 | 1013.2 |
| 20260503225410 | 72 | 306 | 6.0 | 13.0 | 0.00 | 0.00 | 0.00 | 17 | 1013.1 |
| 20260503224906 | 72 | 302 | 5.0 | 13.0 | 0.00 | 0.00 | 0.00 | 18 | 1013.3 |
| 20260503224403 | 72 | 311 | 4.0 | 6.0 | 0.00 | 0.00 | 0.00 | 17 | 1013.3 |
| 20260503223901 | 72 | 347 | 4.0 | 6.0 | 0.00 | 0.00 | 0.00 | 18 | 1013.1 |
| 20260503223359 | 72 | 23 | 3.0 | 5.0 | 0.00 | 0.00 | 0.00 | 18 | 1013.3 |
| 20260503222853 | 72 | 299 | 8.0 | 9.0 | 0.00 | 0.00 | 0.00 | 18 | 1013.5 |
| 20260503222352 | 72 | 321 | 2.0 | 8.0 | 0.00 | 0.00 | 0.00 | 18 | 1013.4 |
| 20260503221850 | 72 | 333 | 5.0 | 11.0 | 0.00 | 0.00 | 0.00 | 18 | 1013.3 |
| 20260503221349 | 72 | 343 | 9.0 | 11.0 | 0.00 | 0.00 | 0.00 | 18 | 1013.9 |
| 20260503220844 | 72 | 186 | 4.0 | 8.0 | 0.00 | 0.00 | 0.00 | 18 | 1013.8 |
| 20260503220341 | 72 | 14 | 5.0 | 10.0 | 0.00 | 0.00 | 0.00 | 18 | 1013.8 |
| 20260503215838 | 72 | 351 | 5.0 | 8.0 | 0.00 | 0.00 | 0.00 | 19 | 1013.9 |
| 20260503215336 | 71 | 323 | 4.0 | 7.0 | 0.00 | 0.00 | 0.00 | 19 | 1014.2 |
| 20260503214833 | 71 | 308 | 6.0 | 8.0 | 0.00 | 0.00 | 0.00 | 19 | 1014.2 |
| 20260503214330 | 71 | 58 | 5.0 | 7.0 | 0.00 | 0.00 | 0.00 | 18 | 1014.2 |
| 20260503213827 | 71 | 318 | 5.0 | 8.0 | 0.00 | 0.00 | 0.00 | 19 | 1014.1 |
| 20260503213325 | 71 | 308 | 4.0 | 11.0 | 0.00 | 0.00 | 0.00 | 18 | 1014.4 |
| 20260503212822 | 72 | 312 | 7.0 | 8.0 | 0.00 | 0.00 | 0.00 | 18 | 1014.3 |
| 20260503212320 | 72 | 328 | 4.0 | 6.0 | 0.00 | 0.00 | 0.00 | 18 | 1014.6 |
| 20260503211817 | 72 | 354 | 3.0 | 7.0 | 0.00 | 0.00 | 0.00 | 17 | 1014.4 |
| 20260503211313 | 72 | 22 | 6.0 | 10.0 | 0.00 | 0.00 | 0.00 | 17 | 1014.6 |
| 20260503210813 | 72 | 199 | 1.0 | 7.0 | 0.00 | 0.00 | 0.00 | 18 | 1014.7 |
| 20260503210311 | 72 | 47 | 4.0 | 7.0 | 0.00 | 0.00 | 0.00 | 17 | 1014.8 |
| 20260503205806 | 72 | 44 | 3.0 | 10.0 | 0.00 | 0.00 | 0.00 | 18 | 1014.8 |
| 20260503205304 | 74 | 209 | 2.0 | 6.0 | 0.00 | 0.00 | 0.00 | 18 | 1014.6 |
| 20260503204759 | 74 | 282 | 3.0 | 9.0 | 0.00 | 0.00 | 0.00 | 17 | 1014.8 |
| 20260503204257 | 73 | 234 | 4.0 | 7.0 | 0.00 | 0.00 | 0.00 | 17 | 1015.0 |
| 20260503203754 | 73 | 210 | 2.0 | 6.0 | 0.00 | 0.00 | 0.00 | 17 | 1014.9 |
| 20260503203251 | 73 | 274 | 4.0 | 7.0 | 0.00 | 0.00 | 0.00 | 16 | 1015.4 |
| 20260503202748 | 73 | 18 | 6.0 | 11.0 | 0.00 | 0.00 | 0.00 | 17 | 1015.4 |